QPF
0.03 0.04 0.03 0.04 0.04 0.05 0.05 0.06 0.06 0.05 0.06 0.08 0.06 0.05 0.04 0.04 0.05 0.06 0.06 0.05 0.04 0.03 0.03 0.04 0.05 0.07 0.07 0.06 0.05 0.04 0.03 0.03 0.03 0.03 0.05 0.07 0.06 0.04 0.03 0.03 0.03 0.04 0.04
0.04 0.04 0.04 0.04 0.04 0.05 0.05 0.05 0.05 0.05 0.04 0.05 0.06 0.06 0.05 0.04 0.04 0.04 0.05 0.05 0.05 0.05 0.05 0.04 0.04 0.04 0.05 0.05 0.05 0.05 0.05 0.04 0.04 0.04 0.04 0.06 0.07 0.05 0.03 0.02 0.02 0.03 0.02
0.04 0.04 0.04 0.04 0.04 0.04 0.04 0.04 0.04 0.03 0.03 0.03 0.03 0.04 0.05 0.05 0.05 0.05 0.05 0.05 0.05 0.05 0.05 0.05 0.05 0.04 0.04 0.04 0.04 0.04 0.05 0.05 0.05 0.05 0.05 0.06 0.07 0.06 0.04 0.03 0.02 0.02 0.01
0.04 0.05 0.05 0.04 0.03 0.03 0.03 0.03 0.03 0.03 0.03 0.03 0.02 0.03 0.04 0.05 0.05 0.05 0.06 0.06 0.06 0.05 0.05 0.05 0.04 0.04 0.04 0.04 0.04 0.04 0.05 0.05 0.05 0.06 0.05 0.06 0.07 0.07 0.05 0.04 0.03 0.02 0.02
0.04 0.04 0.04 0.04 0.03 0.03 0.02 0.02 0.03 0.03 0.03 0.03 0.02 0.02 0.03 0.04 0.04 0.04 0.04 0.04 0.05 0.05 0.06 0.05 0.05 0.05 0.05 0.05 0.04 0.04 0.05 0.05 0.05 0.06 0.05 0.06 0.07 0.07 0.05 0.04 0.03 0.03 0.02
0.04 0.04 0.04 0.04 0.03 0.03 0.03 0.03 0.02 0.02 0.03 0.03 0.02 0.02 0.02 0.02 0.03 0.03 0.04 0.04 0.04 0.04 0.05 0.05 0.05 0.05 0.05 0.06 0.05 0.05 0.06 0.06 0.06 0.06 0.06 0.06 0.05 0.05 0.04 0.04 0.03 0.03 0.02
0.02 0.04 0.04 0.04 0.04 0.03 0.03 0.03 0.03 0.02 0.02 0.02 0.02 0.02 0.02 0.01 0.02 0.02 0.03 0.04 0.04 0.05 0.05 0.05 0.05 0.05 0.05 0.05 0.05 0.05 0.05 0.05 0.05 0.05 0.05 0.05 0.04 0.04 0.04 0.04 0.03 0.02 0.02
0.02 0.02 0.03 0.03 0.03 0.04 0.03 0.03 0.03 0.02 0.02 0.02 0.02 0.01 0.01 0.01 0.01 0.02 0.02 0.03 0.03 0.03 0.04 0.05 0.06 0.06 0.06 0.05 0.05 0.05 0.05 0.04 0.04 0.03 0.03 0.03 0.03 0.03 0.04 0.04 0.03 0.02 0.01
0.01 0.01 0.02 0.02 0.02 0.02 0.03 0.03 0.03 0.02 0.02 0.02 0.02 0.02 0.02 0.01 0.01 0.01 0.02 0.02 0.02 0.02 0.02 0.02 0.03 0.04 0.05 0.05 0.05 0.05 0.04 0.04 0.03 0.03 0.02 0.03 0.04 0.04 0.04 0.04 0.03 0.02 0.02
0.01 0.01 0.01 0.01 0.02 0.02 0.02 0.02 0.02 0.02 0.02 0.02 0.02 0.01 0.01 0.01 0.01 0.02 0.02 0.02 0.03 0.02 0.02 0.02 0.02 0.02 0.03 0.03 0.04 0.05 0.04 0.03 0.03 0.03 0.03 0.02 0.03 0.03 0.04 0.04 0.03 0.02 0.02
0.00 0.00 0.01 0.01 0.01 0.01 0.01 0.01 0.01 0.02 0.01 0.01 0.01 0.01 0.01 0.01 0.01 0.01 0.02 0.02 0.03 0.03 0.03 0.03 0.02 0.03 0.04 0.04 0.05 0.04 0.03 0.03 0.03 0.03 0.03 0.03 0.03 0.03 0.03 0.03 0.03 0.02 0.02
0.00 0.01 0.01 0.01 0.01 0.01 0.01 0.01 0.01 0.01 0.01 0.01 0.01 0.01 0.01 0.01 0.01 0.01 0.01 0.02 0.02 0.03 0.03 0.03 0.03 0.03 0.04 0.04 0.04 0.03 0.03 0.03 0.04 0.04 0.04 0.04 0.03 0.03 0.03 0.03 0.02 0.01 0.01
0.01 0.01 0.01 0.01 0.01 0.01 0.01 0.01 0.01 0.01 0.01 0.01 0.01 0.01 0.01 0.01 0.01 0.01 0.02 0.02 0.02 0.02 0.02 0.02 0.03 0.03 0.03 0.03 0.03 0.03 0.03 0.04 0.04 0.05 0.04 0.03 0.02 0.02 0.03 0.04 0.04 0.03 0.02
0.01 0.01 0.01 0.02 0.02 0.02 0.02 0.02 0.02 0.02 0.02 0.01 0.01 0.01 0.01 0.01 0.01 0.02 0.02 0.02 0.02 0.03 0.03 0.03 0.02 0.02 0.02 0.03 0.03 0.03 0.04 0.04 0.05 0.05 0.04 0.02 0.02 0.03 0.04 0.04 0.05 0.05 0.05
0.01 0.02 0.02 0.02 0.02 0.02 0.02 0.02 0.02 0.02 0.02 0.03 0.03 0.03 0.03 0.03 0.02 0.03 0.04 0.04 0.04 0.04 0.04 0.04 0.03 0.03 0.03 0.03 0.03 0.03 0.03 0.04 0.05 0.05 0.04 0.03 0.03 0.03 0.03 0.04 0.04 0.05 0.05
0.01 0.01 0.02 0.02 0.02 0.02 0.02 0.02 0.02 0.02 0.02 0.03 0.03 0.04 0.04 0.04 0.04 0.05 0.05 0.05 0.05 0.04 0.04 0.04 0.03 0.03 0.03 0.02 0.02 0.03 0.03 0.03 0.03 0.04 0.04 0.04 0.04 0.03 0.03 0.03 0.04 0.04 0.04
0.02 0.02 0.02 0.02 0.02 0.02 0.02 0.02 0.02 0.02 0.02 0.02 0.03 0.03 0.04 0.05 0.05 0.04 0.05 0.05 0.05 0.04 0.05 0.04 0.03 0.02 0.02 0.02 0.02 0.02 0.02 0.02 0.02 0.03 0.03 0.03 0.03 0.03 0.03 0.04 0.04 0.05 0.05
0.02 0.02 0.02 0.02 0.02 0.02 0.02 0.02 0.02 0.02 0.02 0.02 0.03 0.03 0.04 0.04 0.04 0.04 0.04 0.05 0.05 0.05 0.04 0.03 0.03 0.02 0.02 0.02 0.02 0.02 0.02 0.02 0.03 0.03 0.03 0.03 0.03 0.03 0.03 0.03 0.04 0.05 0.05
0.01 0.01 0.01 0.02 0.02 0.02 0.02 0.02 0.02 0.02 0.02 0.02 0.02 0.02 0.03 0.04 0.04 0.04 0.04 0.05 0.05 0.05 0.04 0.03 0.03 0.02 0.02 0.02 0.02 0.02 0.02 0.02 0.03 0.03 0.04 0.03 0.03 0.03 0.04 0.03 0.04 0.04 0.05
0.01 0.01 0.01 0.01 0.01 0.01 0.01 0.02 0.02 0.02 0.02 0.02 0.02 0.02 0.02 0.03 0.03 0.03 0.05 0.06 0.07 0.06 0.05 0.04 0.03 0.03 0.03 0.02 0.02 0.02 0.02 0.02 0.03 0.03 0.03 0.03 0.03 0.03 0.04 0.03 0.04 0.04 0.05
0.01 0.01 0.01 0.01 0.01 0.01 0.01 0.01 0.01 0.01 0.02 0.02 0.02 0.02 0.03 0.03 0.03 0.03 0.04 0.04 0.05 0.05 0.05 0.04 0.03 0.02 0.02 0.02 0.02 0.02 0.02 0.02 0.02 0.03 0.03 0.03 0.03 0.03 0.04 0.04 0.04 0.04 0.04
0.01 0.01 0.01 0.01 0.01 0.01 0.01 0.01 0.01 0.01 0.01 0.01 0.01 0.01 0.02 0.02 0.02 0.02 0.03 0.03 0.03 0.03 0.03 0.03 0.02 0.02 0.02 0.02 0.02 0.02 0.02 0.02 0.02 0.03 0.03 0.03 0.03 0.03 0.04 0.04 0.04 0.05 0.05
0.01 0.01 0.01 0.01 0.01 0.01 0.01 0.01 0.01 0.01 0.01 0.01 0.01 0.01 0.01 0.01 0.01 0.02 0.02 0.03 0.03 0.02 0.02 0.02 0.02 0.02 0.02 0.02 0.02 0.03 0.03 0.03 0.02 0.02 0.03 0.03 0.03 0.03 0.03 0.03 0.04 0.04 0.04
0.01 0.01 0.01 0.01 0.01 0.01 0.01 0.01 0.01 0.01 0.01 0.01 0.01 0.01 0.01 0.01 0.01 0.01 0.02 0.02 0.02 0.02 0.02 0.02 0.02 0.02 0.02 0.02 0.03 0.03 0.03 0.03 0.03 0.03 0.03 0.03 0.03 0.03 0.03 0.03 0.03 0.03 0.04
0.01 0.01 0.01 0.01 0.01 0.01 0.01 0.01 0.00 0.00 0.01 0.01 0.01 0.01 0.01 0.01 0.01 0.01 0.01 0.01 0.02 0.02 0.02 0.02 0.02 0.02 0.02 0.02 0.02 0.02 0.02 0.03 0.03 0.03 0.04 0.03 0.03 0.03 0.03 0.03 0.03 0.03 0.03
0.01 0.01 0.01 0.01 0.01 0.01 0.01 0.01 0.01 0.01 0.01 0.01 0.01 0.01 0.01 0.01 0.01 0.01 0.01 0.01 0.01 0.01 0.01 0.01 0.01 0.01 0.01 0.01 0.01 0.02 0.02 0.02 0.02 0.03 0.03 0.04 0.03 0.03 0.03 0.03 0.03 0.03 0.03
MSLP
1034.28 1034.14 1033.95 1033.71 1033.46 1033.18 1032.92 1032.66 1032.43 1032.23 1032.06 1031.90 1031.76 1031.60 1031.43 1031.23 1031.00 1030.76 1030.52 1030.29 1030.10 1029.94 1029.82 1029.74 1029.67 1029.61 1029.53 1029.42 1029.28 1029.10 1028.89 1028.65 1028.41 1028.15 1027.89 1027.60 1027.29 1026.93 1026.53 1026.07 1025.57 1025.04 1024.49
1034.03 1033.88 1033.68 1033.45 1033.20 1032.96 1032.73 1032.52 1032.33 1032.17 1032.02 1031.88 1031.74 1031.58 1031.41 1031.21 1031.00 1030.79 1030.57 1030.36 1030.17 1029.99 1029.84 1029.69 1029.55 1029.40 1029.24 1029.07 1028.88 1028.69 1028.50 1028.32 1028.15 1027.99 1027.82 1027.63 1027.41 1027.15 1026.83 1026.46 1026.03 1025.58 1025.11
1033.64 1033.51 1033.32 1033.11 1032.89 1032.68 1032.49 1032.32 1032.17 1032.04 1031.91 1031.77 1031.63 1031.46 1031.29 1031.10 1030.90 1030.71 1030.51 1030.32 1030.15 1029.97 1029.79 1029.59 1029.38 1029.15 1028.92 1028.67 1028.44 1028.22 1028.03 1027.88 1027.76 1027.66 1027.56 1027.45 1027.30 1027.11 1026.86 1026.55 1026.21 1025.83 1025.45
1033.13 1033.02 1032.86 1032.68 1032.50 1032.34 1032.20 1032.07 1031.96 1031.85 1031.73 1031.59 1031.43 1031.26 1031.07 1030.87 1030.68 1030.50 1030.33 1030.16 1030.00 1029.83 1029.63 1029.41 1029.15 1028.86 1028.56 1028.25 1027.97 1027.72 1027.52 1027.36 1027.26 1027.19 1027.12 1027.05 1026.94 1026.79 1026.58 1026.33 1026.04 1025.74 1025.44
1032.47 1032.41 1032.30 1032.17 1032.05 1031.94 1031.85 1031.78 1031.71 1031.62 1031.50 1031.36 1031.18 1030.98 1030.76 1030.55 1030.35 1030.17 1030.01 1029.87 1029.72 1029.56 1029.37 1029.13 1028.85 1028.53 1028.18 1027.83 1027.50 1027.21 1026.98 1026.81 1026.69 1026.61 1026.55 1026.47 1026.37 1026.23 1026.04 1025.82 1025.58 1025.34 1025.10
1031.70 1031.70 1031.65 1031.58 1031.52 1031.48 1031.46 1031.44 1031.41 1031.35 1031.24 1031.09 1030.88 1030.65 1030.40 1030.16 1029.94 1029.74 1029.58 1029.44 1029.31 1029.16 1028.98 1028.75 1028.47 1028.13 1027.77 1027.39 1027.04 1026.72 1026.46 1026.26 1026.11 1025.99 1025.90 1025.80 1025.67 1025.52 1025.33 1025.12 1024.91 1024.70 1024.52
1030.84 1030.90 1030.92 1030.93 1030.94 1030.98 1031.02 1031.06 1031.07 1031.04 1030.95 1030.79 1030.57 1030.31 1030.02 1029.74 1029.48 1029.26 1029.08 1028.93 1028.80 1028.67 1028.50 1028.28 1028.01 1027.69 1027.33 1026.95 1026.59 1026.25 1025.97 1025.73 1025.55 1025.39 1025.26 1025.11 1024.95 1024.76 1024.56 1024.35 1024.14 1023.96 1023.82
1029.95 1030.07 1030.16 1030.24 1030.32 1030.42 1030.53 1030.63 1030.69 1030.70 1030.63 1030.47 1030.24 1029.95 1029.63 1029.31 1029.01 1028.75 1028.54 1028.37 1028.23 1028.10 1027.94 1027.74 1027.50 1027.20 1026.86 1026.51 1026.15 1025.82 1025.53 1025.28 1025.06 1024.87 1024.69 1024.51 1024.31 1024.08 1023.85 1023.61 1023.40 1023.22 1023.09
1029.08 1029.25 1029.40 1029.53 1029.68 1029.84 1030.00 1030.15 1030.26 1030.30 1030.25 1030.11 1029.88 1029.58 1029.23 1028.88 1028.54 1028.24 1027.99 1027.80 1027.64 1027.50 1027.35 1027.17 1026.95 1026.69 1026.39 1026.07 1025.74 1025.43 1025.15 1024.90 1024.67 1024.47 1024.26 1024.04 1023.81 1023.55 1023.28 1023.01 1022.76 1022.56 1022.42
1028.26 1028.47 1028.65 1028.83 1029.01 1029.21 1029.41 1029.60 1029.75 1029.82 1029.80 1029.68 1029.46 1029.16 1028.80 1028.43 1028.06 1027.73 1027.45 1027.23 1027.05 1026.90 1026.75 1026.59 1026.40 1026.17 1025.92 1025.64 1025.36 1025.08 1024.83 1024.60 1024.38 1024.18 1023.96 1023.73 1023.47 1023.18 1022.87 1022.56 1022.27 1022.01 1021.83
1027.52 1027.74 1027.94 1028.13 1028.33 1028.54 1028.76 1028.96 1029.13 1029.22 1029.23 1029.13 1028.93 1028.64 1028.29 1027.91 1027.53 1027.19 1026.89 1026.65 1026.45 1026.30 1026.15 1026.01 1025.84 1025.66 1025.44 1025.22 1024.99 1024.76 1024.55 1024.36 1024.17 1023.99 1023.78 1023.55 1023.27 1022.96 1022.61 1022.25 1021.89 1021.57 1021.31
1026.82 1027.04 1027.23 1027.41 1027.60 1027.80 1028.01 1028.21 1028.37 1028.48 1028.49 1028.41 1028.23 1027.96 1027.63 1027.27 1026.90 1026.56 1026.26 1026.02 1025.82 1025.67 1025.54 1025.41 1025.28 1025.13 1024.97 1024.80 1024.62 1024.45 1024.29 1024.15 1024.00 1023.85 1023.67 1023.45 1023.17 1022.84 1022.46 1022.04 1021.61 1021.20 1020.84
1026.13 1026.33 1026.50 1026.65 1026.81 1026.98 1027.16 1027.33 1027.48 1027.57 1027.58 1027.51 1027.34 1027.10 1026.79 1026.45 1026.11 1025.79 1025.52 1025.29 1025.12 1024.99 1024.88 1024.79 1024.69 1024.59 1024.47 1024.35 1024.23 1024.12 1024.02 1023.93 1023.84 1023.73 1023.59 1023.39 1023.12 1022.78 1022.37 1021.90 1021.39 1020.89 1020.41
1025.40 1025.57 1025.71 1025.83 1025.95 1026.07 1026.21 1026.34 1026.45 1026.51 1026.50 1026.42 1026.26 1026.04 1025.76 1025.45 1025.15 1024.87 1024.63 1024.44 1024.31 1024.22 1024.16 1024.10 1024.06 1024.00 1023.94 1023.88 1023.81 1023.76 1023.72 1023.69 1023.65 1023.60 1023.50 1023.33 1023.09 1022.74 1022.31 1021.79 1021.22 1020.62 1020.04
1024.57 1024.71 1024.83 1024.92 1025.00 1025.09 1025.18 1025.27 1025.32 1025.34 1025.31 1025.21 1025.04 1024.82 1024.56 1024.28 1024.02 1023.79 1023.60 1023.47 1023.39 1023.35 1023.34 1023.35 1023.35 1023.36 1023.35 1023.34 1023.34 1023.35 1023.36 1023.39 1023.41 1023.41 1023.37 1023.25 1023.03 1022.71 1022.27 1021.72 1021.09 1020.42 1019.74
1023.63 1023.76 1023.86 1023.94 1024.00 1024.07 1024.12 1024.16 1024.18 1024.15 1024.07 1023.94 1023.75 1023.52 1023.27 1023.02 1022.79 1022.61 1022.47 1022.40 1022.38 1022.41 1022.46 1022.52 1022.59 1022.65 1022.70 1022.75 1022.80 1022.87 1022.94 1023.03 1023.11 1023.18 1023.19 1023.13 1022.96 1022.67 1022.24 1021.69 1021.03 1020.30 1019.55
1022.60 1022.74 1022.84 1022.92 1022.99 1023.05 1023.09 1023.10 1023.08 1023.01 1022.88 1022.71 1022.50 1022.25 1022.00 1021.76 1021.55 1021.40 1021.32 1021.30 1021.33 1021.42 1021.53 1021.65 1021.77 1021.89 1022.00 1022.10 1022.20 1022.32 1022.45 1022.60 1022.75 1022.88 1022.96 1022.97 1022.86 1022.62 1022.24 1021.71 1021.06 1020.30 1019.49
1021.54 1021.69 1021.81 1021.92 1022.02 1022.08 1022.12 1022.12 1022.08 1021.97 1021.81 1021.60 1021.35 1021.08 1020.81 1020.57 1020.38 1020.25 1020.20 1020.22 1020.30 1020.43 1020.59 1020.76 1020.93 1021.09 1021.24 1021.38 1021.54 1021.70 1021.89 1022.09 1022.30 1022.50 1022.66 1022.75 1022.72 1022.56 1022.24 1021.76 1021.14 1020.39 1019.56
1020.51 1020.67 1020.83 1020.98 1021.10 1021.20 1021.25 1021.25 1021.19 1021.06 1020.87 1020.63 1020.35 1020.05 1019.76 1019.52 1019.32 1019.21 1019.17 1019.21 1019.32 1019.47 1019.66 1019.86 1020.05 1020.24 1020.43 1020.60 1020.79 1021.00 1021.23 1021.49 1021.76 1022.03 1022.27 1022.44 1022.51 1022.43 1022.20 1021.80 1021.23 1020.53 1019.72
1019.56 1019.74 1019.92 1020.10 1020.26 1020.38 1020.45 1020.45 1020.39 1020.24 1020.03 1019.76 1019.46 1019.14 1018.84 1018.58 1018.38 1018.27 1018.23 1018.28 1018.39 1018.55 1018.74 1018.95 1019.16 1019.35 1019.55 1019.74 1019.95 1020.19 1020.45 1020.76 1021.09 1021.43 1021.74 1022.00 1022.16 1022.20 1022.07 1021.76 1021.28 1020.64 1019.88
1018.73 1018.90 1019.09 1019.28 1019.45 1019.58 1019.66 1019.67 1019.60 1019.44 1019.22 1018.94 1018.61 1018.28 1017.97 1017.71 1017.51 1017.38 1017.35 1017.38 1017.49 1017.64 1017.82 1018.01 1018.20 1018.39 1018.58 1018.78 1018.99 1019.24 1019.54 1019.88 1020.25 1020.65 1021.04 1021.39 1021.64 1021.78 1021.76 1021.56 1021.19 1020.64 1019.96
1018.00 1018.15 1018.31 1018.48 1018.64 1018.76 1018.82 1018.81 1018.73 1018.56 1018.33 1018.04 1017.72 1017.39 1017.08 1016.82 1016.62 1016.50 1016.45 1016.47 1016.56 1016.69 1016.84 1017.00 1017.17 1017.33 1017.50 1017.68 1017.90 1018.15 1018.46 1018.82 1019.23 1019.68 1020.13 1020.55 1020.90 1021.14 1021.23 1021.15 1020.88 1020.45 1019.86
1017.35 1017.43 1017.54 1017.66 1017.77 1017.84 1017.87 1017.83 1017.71 1017.53 1017.29 1016.99 1016.68 1016.36 1016.07 1015.82 1015.64 1015.52 1015.47 1015.48 1015.55 1015.65 1015.77 1015.89 1016.02 1016.16 1016.29 1016.46 1016.65 1016.90 1017.21 1017.59 1018.03 1018.51 1019.01 1019.49 1019.92 1020.24 1020.43 1020.46 1020.32 1020.00 1019.53
1016.73 1016.73 1016.76 1016.79 1016.82 1016.82 1016.78 1016.69 1016.53 1016.32 1016.07 1015.78 1015.48 1015.18 1014.91 1014.69 1014.52 1014.41 1014.37 1014.37 1014.42 1014.49 1014.58 1014.67 1014.76 1014.86 1014.97 1015.11 1015.29 1015.53 1015.84 1016.22 1016.67 1017.17 1017.71 1018.23 1018.72 1019.12 1019.40 1019.53 1019.50 1019.31 1018.96
1016.13 1016.03 1015.95 1015.89 1015.82 1015.73 1015.61 1015.45 1015.25 1015.01 1014.74 1014.45 1014.16 1013.88 1013.64 1013.44 1013.30 1013.20 1013.16 1013.16 1013.19 1013.23 1013.29 1013.35 1013.41 1013.47 1013.56 1013.68 1013.84 1014.07 1014.38 1014.76 1015.21 1015.73 1016.28 1016.83 1017.36 1017.82 1018.17 1018.40 1018.47 1018.40 1018.18
1015.55 1015.35 1015.18 1015.02 1014.85 1014.67 1014.47 1014.24 1013.98 1013.70 1013.41 1013.11 1012.83 1012.57 1012.35 1012.17 1012.04 1011.95 1011.91 1011.89 1011.90 1011.92 1011.95 1011.98 1012.01 1012.05 1012.12 1012.22 1012.38 1012.59 1012.89 1013.27 1013.72 1014.24 1014.79 1015.37 1015.92 1016.41 1016.83 1017.13 1017.30 1017.34 1017.24
Thickness
5436 5436 5437 5437 5437 5437 5438 5437 5438 5438 5439 5438 5438 5439 5440 5440 5440 5440 5441 5441 5440 5440 5439 5439 5439 5438 5438 5438 5437 5437 5437 5438 5439 5442 5442 5444 5445 5446 5448 5449 5451 5453 5455
5423 5422 5423 5423 5423 5424 5424 5423 5423 5424 5425 5425 5425 5425 5426 5426 5426 5426 5427 5427 5427 5427 5427 5426 5426 5425 5424 5424 5423 5423 5423 5424 5425 5426 5428 5428 5431 5432 5434 5435 5436 5438 5440
5409 5409 5409 5409 5410 5410 5410 5410 5410 5410 5410 5411 5412 5412 5412 5412 5412 5412 5412 5413 5414 5414 5414 5413 5413 5412 5411 5410 5410 5410 5410 5410 5411 5412 5414 5414 5415 5417 5418 5420 5421 5423 5425
5395 5395 5396 5396 5396 5396 5396 5396 5396 5396 5396 5397 5398 5399 5399 5399 5399 5399 5398 5398 5399 5400 5400 5400 5400 5399 5399 5398 5397 5397 5396 5396 5396 5397 5398 5400 5400 5401 5402 5404 5407 5408 5409
5381 5381 5382 5382 5382 5382 5382 5382 5382 5382 5382 5383 5384 5385 5385 5386 5386 5385 5385 5384 5384 5384 5385 5386 5386 5386 5386 5386 5385 5384 5383 5383 5382 5383 5384 5385 5385 5385 5387 5389 5390 5392 5393
5368 5367 5367 5367 5367 5367 5367 5367 5367 5368 5368 5368 5369 5370 5370 5371 5372 5372 5372 5371 5370 5370 5370 5371 5371 5372 5372 5373 5373 5373 5371 5369 5369 5370 5370 5371 5373 5372 5372 5373 5373 5375 5378
5355 5354 5353 5352 5352 5352 5352 5352 5353 5353 5353 5353 5353 5354 5354 5356 5357 5358 5357 5356 5356 5355 5355 5355 5357 5357 5357 5358 5359 5359 5358 5357 5357 5357 5358 5358 5359 5359 5358 5357 5357 5360 5363
5342 5340 5339 5338 5337 5336 5336 5337 5337 5337 5337 5337 5338 5338 5339 5340 5341 5342 5342 5341 5341 5341 5341 5341 5341 5342 5342 5343 5343 5343 5342 5342 5342 5342 5344 5345 5345 5344 5343 5343 5342 5343 5345
5329 5327 5326 5324 5323 5322 5321 5321 5321 5321 5321 5321 5322 5322 5323 5324 5325 5326 5326 5325 5325 5326 5326 5326 5326 5327 5329 5329 5329 5328 5328 5328 5327 5328 5330 5330 5330 5329 5328 5325 5325 5325 5329
5316 5314 5312 5310 5309 5308 5307 5306 5305 5305 5306 5306 5307 5306 5307 5308 5309 5310 5310 5310 5311 5311 5311 5311 5311 5312 5313 5314 5313 5313 5313 5314 5313 5314 5314 5315 5314 5313 5312 5311 5310 5310 5311
5303 5301 5299 5297 5295 5293 5292 5291 5290 5290 5290 5290 5291 5291 5291 5292 5293 5294 5294 5294 5294 5295 5295 5296 5297 5297 5298 5298 5298 5298 5300 5299 5298 5298 5299 5299 5298 5297 5297 5296 5295 5295 5296
5289 5287 5284 5282 5280 5279 5277 5276 5275 5274 5273 5273 5274 5274 5275 5276 5277 5278 5279 5279 5279 5278 5279 5280 5281 5281 5282 5282 5282 5283 5283 5282 5281 5281 5282 5283 5282 5282 5281 5281 5281 5281 5282
5274 5272 5269 5267 5265 5264 5262 5260 5259 5258 5258 5258 5259 5259 5261 5261 5261 5262 5263 5263 5263 5263 5263 5264 5265 5265 5265 5265 5265 5265 5265 5264 5264 5264 5266 5267 5267 5266 5265 5266 5266 5265 5266
5259 5256 5254 5252 5250 5248 5247 5246 5245 5244 5243 5243 5244 5244 5245 5245 5246 5246 5246 5246 5247 5247 5246 5247 5248 5247 5247 5247 5247 5246 5247 5247 5248 5249 5249 5249 5249 5249 5249 5249 5249 5250 5250
5244 5242 5239 5238 5235 5233 5232 5230 5229 5229 5228 5228 5228 5228 5228 5229 5231 5231 5231 5231 5230 5230 5229 5229 5229 5229 5229 5230 5230 5230 5231 5231 5231 5231 5231 5232 5232 5233 5233 5233 5233 5234 5234
5230 5227 5225 5223 5221 5219 5217 5216 5215 5214 5215 5215 5215 5214 5215 5216 5216 5216 5216 5216 5215 5214 5212 5211 5212 5212 5213 5214 5214 5215 5215 5215 5215 5215 5215 5216 5217 5217 5217 5218 5218 5218 5220
5215 5213 5211 5209 5207 5204 5202 5201 5200 5200 5199 5199 5200 5200 5200 5201 5201 5200 5200 5200 5198 5197 5194 5194 5195 5195 5196 5197 5198 5198 5199 5199 5199 5199 5200 5200 5201 5201 5202 5202 5203 5203 5205
5202 5200 5198 5195 5192 5189 5187 5185 5184 5183 5183 5183 5183 5183 5184 5185 5185 5184 5183 5182 5180 5179 5178 5178 5178 5179 5181 5182 5182 5183 5183 5184 5184 5184 5185 5185 5185 5186 5187 5187 5188 5188 5190
5188 5186 5183 5180 5178 5175 5173 5170 5168 5167 5167 5167 5166 5166 5166 5167 5167 5167 5166 5163 5163 5163 5163 5164 5164 5165 5166 5167 5168 5168 5168 5169 5169 5169 5170 5171 5171 5171 5172 5173 5174 5176 5177
5175 5174 5171 5167 5164 5161 5159 5156 5154 5152 5151 5150 5150 5150 5149 5149 5148 5148 5147 5146 5146 5147 5148 5149 5150 5150 5150 5151 5152 5153 5154 5155 5155 5155 5156 5157 5157 5158 5159 5160 5161 5162 5164
5162 5159 5158 5154 5150 5148 5145 5142 5140 5138 5136 5135 5135 5135 5136 5134 5133 5132 5132 5131 5131 5131 5132 5133 5134 5136 5136 5137 5138 5139 5140 5142 5142 5143 5143 5144 5144 5145 5146 5147 5148 5149 5151
5149 5146 5143 5139 5136 5134 5131 5129 5126 5124 5123 5122 5121 5121 5122 5120 5118 5118 5118 5118 5118 5118 5119 5119 5121 5122 5124 5125 5126 5128 5129 5130 5130 5131 5131 5132 5132 5133 5135 5136 5137 5138 5140
5137 5133 5130 5126 5123 5121 5118 5115 5113 5111 5109 5108 5108 5107 5106 5106 5105 5105 5105 5105 5105 5105 5106 5107 5108 5110 5112 5114 5115 5117 5118 5119 5120 5121 5121 5122 5122 5123 5124 5126 5127 5129 5131
5124 5120 5116 5113 5110 5107 5104 5102 5099 5098 5097 5095 5095 5094 5093 5093 5093 5093 5093 5093 5093 5094 5094 5095 5097 5099 5101 5103 5105 5107 5108 5110 5111 5111 5112 5112 5113 5114 5115 5117 5119 5121 5124
5111 5107 5104 5100 5097 5094 5092 5090 5088 5086 5085 5084 5083 5083 5082 5081 5081 5081 5082 5082 5082 5083 5084 5085 5086 5089 5091 5093 5095 5097 5100 5101 5102 5104 5104 5105 5106 5107 5108 5109 5112 5114 5116
5099 5095 5092 5089 5086 5083 5081 5079 5077 5076 5074 5074 5073 5072 5071 5071 5071 5071 5071 5071 5072 5072 5074 5075 5077 5079 5081 5083 5086 5088 5091 5093 5095 5096 5097 5098 5099 5100 5101 5103 5105 5107 5109